Location: Kernascl�den
(48.0062°N, 3.3198°W)
Time: 08:51:12
(UTC+00:00)

Cosmos 1553 Rocket - Visible Passes

Search period start: 09 May 2021 00:00
Search period end: 19 May 2021 00:00
Orbit: 942 x 1007 km, 82.9° (Epoch: 08 May)

Date Brightness Start Highest point End Pass type
(mag) Time Alt. Az. Time Alt. Az. Time Alt. Az.
09 May 4.6 20:49:39 10° SSW 20:55:41 59° WNW 21:01:52 10° N visible
09 May 6.8 22:40:42 10° WNW 22:42:34 11° NW 22:44:25 10° NW visible
10 May 5.6 21:15:30 10° SW 21:21:05 35° WNW 21:26:47 10° N visible
11 May 6.4 21:42:01 10° WSW 21:46:40 22° WNW 21:51:25 10° NNW visible
12 May 4.4 20:19:40 10° SSW 20:25:47 69° W 20:32:03 10° N visible
12 May 6.8 22:09:36 10° W 22:12:29 13° WNW 22:15:23 10° NNW visible
13 May 5.4 20:45:21 10° SW 20:51:08 41° WNW 20:57:03 10° N visible
14 May 6.3 21:11:40 10° WSW 21:16:40 25° WNW 21:21:47 10° N visible
15 May 6.8 21:38:50 10° W 21:42:25 16° WNW 21:46:02 10° NNW visible
16 May 5.2 20:15:15 10° SSW 20:21:12 48° WNW 20:27:17 10° N visible
17 May 6.2 20:41:23 10° SW 20:46:41 29° WNW 20:52:07 10° N visible
18 May 6.8 21:08:15 10° WSW 21:12:23 18° WNW 21:16:34 10° NNW visible
